Flag for United Kingdom Weather past 2 weeks in Newport, Wales, United Kingdom

Now
54 °F

Scattered clouds.


Feels Like: 51 °F
Forecast: 40 / 62 °F
Wind: 9 mph from North

Location: Bristol / Lulsgate

Current Time: May 26, 2015 at 11:20:40 AM

Latest Report: May 26, 2015 at 10:20 AM


Visibility: N/A

Pressure: 30.24 "Hg

Humidity: 82%

Dew point: 48 °F

Location of NewportLocation

Historic Weather in Newport — Graph

°F

Newport temperature yesterday

Maximum temperature yesterday: 57 °F (at 11:20 AM)
Minimum temperature yesterday: 45 °F (at 3:20 AM)
Average temperature yesterday: 52 °F

Past Weeks' High & Low Weather Summary

 TemperatureHumidityPressure
High66 °F (May 23, 2:50 PM)100% (May 13, 6:20 AM)30.39 "Hg (May 13, 6:20 AM)
Low39 °F (May 20, 2:50 AM)36% (May 13, 1:50 PM)29.59 "Hg (May 18, 10:20 AM)
Average51 °F80%30.10 "Hg
* Reported May 11 10:20 AM — May 26 10:20 AM, Newport, Weather by CustomWeather, © 2015

Note: Actual official high and low records may vary slightly from our data, if they occured in-between our weather recording intervals... More about our weather records

Advertising

Newport weather history for previous 24 hours

 ConditionsComfort  
Time TempWeatherWind HumidityBarometerVisibility
10:20 AM
Tue, May 26
54 °FScattered clouds.9 mph82%30.24 "HgN/A
9:50 AM54 °FScattered clouds.9 mph82%30.24 "HgN/A
9:20 AM54 °FScattered clouds.7 mph88%30.24 "HgN/A
8:50 AM54 °FScattered clouds.6 mph88%30.24 "HgN/A
8:20 AM52 °FScattered clouds.6 mph88%30.24 "HgN/A
7:50 AM52 °FScattered clouds.5 mph88%30.21 "HgN/A
7:20 AM52 °FScattered clouds.6 mph88%30.21 "HgN/A
6:50 AM52 °FPassing clouds.6 mph88%30.21 "HgN/A
6:20 AM50 °FScattered clouds.5 mph88%30.21 "HgN/A
5:50 AM50 °FPassing clouds.5 mph88%30.21 "HgN/A
5:20 AM50 °FPassing clouds.6 mph88%30.18 "HgN/A
4:50 AM50 °FPassing clouds.5 mph88%30.18 "HgN/A
3:50 AM50 °FPassing clouds.5 mph88%30.21 "HgN/A
3:20 AM50 °FPassing clouds.6 mph88%30.21 "HgN/A
2:50 AM50 °FPassing clouds.5 mph88%30.18 "HgN/A
2:20 AM50 °FPassing clouds.3 mph88%30.18 "HgN/A
1:50 AM48 °FPassing clouds.5 mph94%30.18 "HgN/A
1:20 AM48 °FClear.6 mph87%30.18 "Hg10 mi
12:50 AM48 °FClear.5 mph87%30.18 "Hg10 mi
12:20 AM50 °FClear.2 mph88%30.18 "Hg10 mi
11:50 PM
Mon, May 25
52 °FClear.3 mph82%30.18 "Hg10 mi
11:20 PM52 °FPassing clouds.3 mph82%30.18 "HgN/A
10:50 PM52 °FPassing clouds.3 mph82%30.18 "HgN/A
10:20 PM52 °FPassing clouds.2 mph82%30.18 "HgN/A
9:50 PM52 °FScattered clouds.3 mph82%30.15 "HgN/A
9:20 PM54 °FScattered clouds.7 mph77%30.15 "HgN/A
8:50 PM55 °FScattered clouds.6 mph72%30.15 "HgN/A
8:20 PM55 °FScattered clouds.6 mph82%30.15 "HgN/A
7:50 PM55 °FScattered clouds.9 mph82%30.12 "HgN/A
7:20 PM55 °FScattered clouds.12 mph82%30.12 "HgN/A
6:50 PM55 °FScattered clouds.13 mph82%30.12 "HgN/A
6:20 PM55 °FPartly sunny.13 mph82%30.12 "HgN/A
5:50 PM55 °FPartly sunny.13 mph82%30.12 "HgN/A
5:20 PM55 °FPartly sunny.15 mph77%30.12 "HgN/A
4:50 PM55 °FPartly sunny.13 mph82%30.12 "HgN/A
4:20 PM57 °FPartly sunny.13 mph77%30.12 "HgN/A
3:50 PM55 °FPartly sunny.13 mph77%30.12 "HgN/A
3:20 PM55 °FPartly sunny.12 mph77%30.12 "HgN/A
2:50 PM57 °FPartly sunny.13 mph77%30.12 "HgN/A
2:20 PM57 °FPartly sunny.12 mph77%30.12 "HgN/A
1:50 PM55 °FBroken clouds.12 mph77%30.12 "HgN/A
1:20 PM57 °FBroken clouds.15 mph72%30.12 "HgN/A
12:50 PM55 °FScattered clouds.12 mph77%30.12 "HgN/A
12:20 PM55 °FScattered clouds.13 mph72%30.12 "HgN/A
11:50 AM57 °FScattered clouds.13 mph77%30.12 "HgN/A
11:20 AM57 °FScattered clouds.10 mph72%30.12 "HgN/A
Weather by CustomWeather, © 2015

See weather overviewHow to use our weather pages